K0HYD Weather Reports


Display with metric or nautical units.
time (UTC)temp
F
wind
direction
speed
MPH
gust
MPH
rain 1hr
in
rain 24hr
in
rain mn
in
humidity
%
barometer
mb
20260904202440 99 161 0.0 6.0 0.00 0.00 0.00 43 1008.9
20260904200939 99 105 0.0 7.0 0.00 0.00 0.00 44 1008.9
20260904195438 99 169 1.0 6.0 0.00 0.00 0.00 43 1008.9
20260904192436 97 204 0.0 10.0 0.00 0.00 0.00 45 1009.3
20260904185434 97 166 0.0 12.0 0.00 0.00 0.00 45 1009.5
20260904180932 95 131 2.0 6.0 0.00 0.00 0.00 51 1010.0
20260904175431 95 174 4.0 7.0 0.00 0.00 0.00 51 1010.1
20260904173929 94 120 3.0 7.0 0.00 0.00 0.00 53 1010.4
20260904172428 93 166 0.0 6.0 0.00 0.00 0.00 55 1010.5
20260904170927 92 169 0.0 7.0 0.00 0.00 0.00 56 1010.7
20260904165426 92 122 5.0 6.0 0.00 0.00 0.00 57 1010.7
20260904163926 90 200 0.0 6.0 0.00 0.00 0.00 59 1010.8
20260904162425 89 142 0.0 7.0 0.00 0.00 0.00 60 1010.8
20260904160924 88 188 2.0 6.0 0.00 0.00 0.00 63 1010.8
20260904155423 87 186 0.0 6.0 0.00 0.00 0.00 64 1010.8
20260904153922 87 198 4.0 6.0 0.00 0.00 0.00 64 1010.7
20260904152421 86 169 5.0 7.0 0.00 0.00 0.00 66 1010.8
20260904150920 85 152 2.0 6.0 0.00 0.00 0.00 68 1011.0
20260904143918 82 137 4.0 6.0 0.00 0.00 0.00 72 1011.0
20260904142417 81 166 4.0 6.0 0.00 0.00 0.00 75 1011.1
20260904140916 80 150 0.0 11.0 0.00 0.00 0.00 77 1011.1
20260904133914 77 212 1.0 6.0 0.00 0.00 0.00 82 1011.0
20260904130912 75 149 0.0 4.0 0.00 0.00 0.00 85 1010.8
20260904125411 75 142 3.0 3.0 0.00 0.00 0.00 86 1010.7
20260904122409 74 158 0.0 1.0 0.00 0.00 0.00 86 1010.3
20260904120908 74 165 0.0 1.0 0.00 0.00 0.00 86 1010.1
20260904115407 74 131 0.0 1.0 0.00 0.00 0.00 86 1010.1
20260904113907 74 154 0.0 5.0 0.00 0.00 0.00 86 1010.0
20260904112406 74 134 0.0 1.0 0.00 0.00 0.00 85 1010.0
20260904110905 74 142 0.0 2.0 0.00 0.00 0.00 85 1010.0
20260904103903 75 136 0.0 4.0 0.00 0.00 0.00 84 1010.0
20260904102401 75 143 0.0 1.0 0.00 0.00 0.00 83 1010.0
20260904095400 76 140 0.0 1.0 0.00 0.00 0.00 82 1009.9
20260904093859 76 190 0.0 3.0 0.00 0.00 0.00 81 1009.8
20260904092358 76 147 0.0 4.0 0.00 0.00 0.00 80 1009.5
20260904085356 77 203 0.0 5.0 0.00 0.00 0.00 79 1009.4
20260904083855 78 145 0.0 4.0 0.00 0.00 0.00 78 1009.5
20260904082354 78 165 0.0 7.0 0.00 0.00 0.00 77 1009.5
20260904075352 79 140 1.0 5.0 0.00 0.00 0.00 76 1009.5
20260904073851 79 146 0.0 6.0 0.00 0.00 0.00 75 1009.7
20260904072350 79 170 0.0 6.0 0.00 0.00 0.00 74 1009.7
20260904070849 80 155 0.0 6.0 0.00 0.00 0.00 73 1009.6
20260904065348 80 191 0.0 6.0 0.00 0.00 0.00 73 1009.7
20260904063847 80 176 0.0 6.0 0.00 0.00 0.00 72 1009.7
20260904062346 81 167 3.0 6.0 0.00 0.00 0.00 71 1009.6
20260904060846 81 134 3.0 6.0 0.00 0.00 0.00 70 1009.5
20260904055344 82 195 2.0 7.0 0.00 0.00 0.00 69 1009.6
20260904053843 82 153 0.0 6.0 0.00 0.00 0.00 68 1009.5
20260904050841 83 155 2.0 7.0 0.00 0.00 0.00 67 1009.3
20260904045340 83 160 0.0 6.0 0.00 0.00 0.00 66 1009.2
20260904043840 84 142 5.0 7.0 0.00 0.00 0.00 65 1009.2
20260904042338 84 149 3.0 6.0 0.00 0.00 0.00 65 1009.2
20260904035336 85 154 0.0 6.0 0.00 0.00 0.00 63 1008.9
20260904033836 85 212 0.0 7.0 0.00 0.00 0.00 63 1008.9
20260904032335 86 129 4.0 7.0 0.00 0.00 0.00 62 1008.8
20260904030834 86 118 6.0 10.0 0.00 0.00 0.00 61 1008.6
20260904025333 87 142 4.0 15.0 0.00 0.00 0.00 60 1008.4
20260904023832 88 176 0.0 7.0 0.00 0.00 0.00 59 1008.3
20260904022331 88 137 4.0 11.0 0.00 0.00 0.00 57 1008.2
20260904020830 89 176 5.0 8.0 0.00 0.00 0.00 55 1007.9
20260904015329 89 113 0.0 6.0 0.00 0.00 0.00 53 1007.7
20260904013828 90 129 0.0 7.0 0.00 0.00 0.00 51 1007.4
20260904012327 91 152 3.0 7.0 0.00 0.00 0.00 49 1007.1
20260904010826 92 208 3.0 6.0 0.00 0.00 0.00 47 1007.0
20260904005325 92 146 3.0 7.0 0.00 0.00 0.00 46 1006.9
20260904003824 93 153 1.0 7.0 0.00 0.00 0.00 45 1006.7
20260904002323 94 127 0.0 7.0 0.00 0.00 0.00 43 1006.6
20260903235321 96 201 1.0 10.0 0.00 0.00 0.00 39 1006.5
20260903233820 97 101 0.0 6.0 0.00 0.00 0.00 39 1006.4
20260903232319 98 126 5.0 6.0 0.00 0.00 0.00 38 1006.4
20260903230819 98 105 3.0 11.0 0.00 0.00 0.00 37 1006.4
20260903225317 99 195 4.0 7.0 0.00 0.00 0.00 36 1006.3
20260903223816 99 215 2.0 10.0 0.00 0.00 0.00 37 1006.3
20260903222315 99 205 1.0 11.0 0.00 0.00 0.00 36 1006.2
20260903220814 99 119 4.0 8.0 0.00 0.00 0.00 37 1006.3
20260903215313 100 128 3.0 7.0 0.00 0.00 0.00 38 1006.4
20260903212311 100 125 6.0 11.0 0.00 0.00 0.00 38 1006.6
20260903210811 100 166 0.0 8.0 0.00 0.00 0.00 38 1006.7
20260903205310 100 233 0.0 7.0 0.00 0.00 0.00 38 1006.9
20260903203809 100 177 3.0 7.0 0.00 0.00 0.00 39 1007.0